GW1004 Weather Reports


time (UTC)temp
F
wind
direction
speed
knots
gust
knots
rain 1hr
in
rain 24hr
in
rain mn
in
humidity
%
barometer
mb
20260505011704 66 181 2.6 2.6 0.00 0.00 0.00 45 1012.1
20260505011201 66 177 3.5 4.3 0.00 0.00 0.00 45 1012.1
20260505010656 66 235 1.7 2.6 0.00 0.00 0.00 45 1011.9
20260505010154 66 223 3.5 5.2 0.00 0.00 0.00 45 1012.0
20260505005650 66 174 3.5 5.2 0.00 0.00 0.00 46 1011.8
20260505005147 66 216 1.7 1.7 0.00 0.00 0.00 45 1011.7
20260505004644 66 231 0.9 0.9 0.00 0.00 0.00 45 1011.8
20260505004140 66 231 0.9 1.7 0.00 0.00 0.00 44 1011.7
20260505003638 66 204 1.7 2.6 0.00 0.00 0.00 44 1011.5
20260505003135 66 233 1.7 1.7 0.00 0.00 0.00 44 1011.6
20260505002631 66 243 1.7 1.7 0.00 0.00 0.00 43 1011.5
20260505002129 67 247 0.9 0.9 0.00 0.00 0.00 44 1011.5
20260505001626 67 246 1.7 1.7 0.00 0.00 0.00 43 1011.4
20260505001124 67 185 1.7 2.6 0.00 0.00 0.00 43 1011.5
20260505000620 67 254 0.9 0.9 0.00 0.00 0.00 43 1011.5
20260505000119 67 254 0.9 0.9 0.00 0.00 0.00 43 1011.6
20260504235615 67 251 0.9 1.7 0.00 0.00 0.00 42 1011.6
20260504235111 67 248 1.7 1.7 0.00 0.00 0.00 42 1011.4
20260504234608 67 249 0.9 1.7 0.00 0.00 0.00 42 1011.5
20260504234106 68 256 0.9 0.9 0.00 0.00 0.00 41 1011.3
20260504233602 68 191 1.7 1.7 0.00 0.00 0.00 41 1011.4
20260504233058 68 260 0.0 0.9 0.00 0.00 0.00 41 1011.5
20260504232555 68 250 1.7 1.7 0.00 0.00 0.00 41 1011.4
20260504232053 68 186 2.6 2.6 0.00 0.00 0.00 40 1011.3
20260504231549 68 225 2.6 4.3 0.00 0.00 0.00 41 1011.2
20260504231045 68 262 0.9 1.7 0.00 0.00 0.00 40 1011.4
20260504230542 68 243 1.7 1.7 0.00 0.00 0.00 42 1011.4
20260504230041 68 256 0.9 0.9 0.00 0.00 0.00 41 1011.4
20260504225538 68 247 1.7 1.7 0.00 0.00 0.00 40 1011.3
20260504225035 69 250 0.9 0.9 0.00 0.00 0.00 39 1011.4
20260504224531 69 262 1.7 1.7 0.00 0.00 0.00 40 1011.5
20260504224028 69 259 0.9 0.9 0.00 0.00 0.00 39 1011.2
20260504223525 69 254 1.7 1.7 0.00 0.00 0.00 39 1011.6
20260504223021 69 190 4.3 6.1 0.00 0.00 0.00 39 1011.4
20260504222518 69 207 3.5 4.3 0.00 0.00 0.00 39 1011.6
20260504222016 69 209 3.5 4.3 0.00 0.00 0.00 38 1011.3
20260504221513 69 277 0.9 0.9 0.00 0.00 0.00 38 1011.4
20260504221009 69 274 1.7 1.7 0.00 0.00 0.00 38 1011.4
20260504220506 69 262 1.7 2.6 0.00 0.00 0.00 38 1011.5
20260504220003 69 257 0.9 0.9 0.00 0.00 0.00 38 1011.5
20260504215459 69 262 2.6 4.3 0.00 0.00 0.00 38 1011.6
20260504214956 69 223 2.6 2.6 0.00 0.00 0.00 37 1011.5
20260504214453 69 262 0.9 1.7 0.00 0.00 0.00 37 1011.5
20260504213949 69 199 2.6 2.6 0.00 0.00 0.00 38 1011.7
20260504213445 70 266 1.7 1.7 0.00 0.00 0.00 37 1011.6
20260504212943 69 286 1.7 2.6 0.00 0.00 0.00 38 1011.6
20260504212438 69 246 0.0 0.9 0.00 0.00 0.00 38 1011.8
20260504211936 69 240 2.6 2.6 0.00 0.00 0.00 38 1011.7
20260504211432 70 206 2.6 4.3 0.00 0.00 0.00 38 1011.5
20260504210930 70 254 0.9 1.7 0.00 0.00 0.00 38 1011.5
20260504210427 70 203 1.7 1.7 0.00 0.00 0.00 38 1011.5
20260504205924 70 226 1.7 1.7 0.00 0.00 0.00 38 1011.5
20260504205421 69 245 0.9 0.9 0.00 0.00 0.00 38 1011.8
20260504204919 69 245 0.9 1.7 0.00 0.00 0.00 38 1011.4
20260504204417 69 184 2.6 2.6 0.00 0.00 0.00 38 1011.4
20260504203916 69 204 2.6 2.6 0.00 0.00 0.00 38 1011.5
20260504203414 70 181 3.5 5.2 0.00 0.00 0.00 37 1011.6
20260504202909 70 245 1.7 2.6 0.00 0.00 0.00 37 1011.8
20260504202406 70 262 0.9 1.7 0.00 0.00 0.00 37 1011.7
20260504201903 70 211 1.7 1.7 0.00 0.00 0.00 37 1011.7
20260504201401 70 239 1.7 1.7 0.00 0.00 0.00 36 1011.7
20260504200857 70 240 2.6 2.6 0.00 0.00 0.00 36 1011.9
20260504200354 70 248 2.6 2.6 0.00 0.00 0.00 37 1011.9
20260504195851 70 250 2.6 4.3 0.00 0.00 0.00 37 1011.8
20260504195346 70 232 2.6 2.6 0.00 0.00 0.00 37 1012.0
20260504194843 70 240 1.7 1.7 0.00 0.00 0.00 36 1012.0
20260504194339 71 283 1.7 2.6 0.00 0.00 0.00 36 1011.9
20260504193835 71 233 3.5 4.3 0.00 0.00 0.00 36 1011.9
20260504193333 71 278 0.9 1.7 0.00 0.00 0.00 35 1012.0
20260504192831 71 271 1.7 1.7 0.00 0.00 0.00 36 1012.1
20260504192329 70 132 1.7 2.6 0.00 0.00 0.00 36 1012.2
20260504191827 71 229 2.6 2.6 0.00 0.00 0.00 35 1012.1
20260504191324 71 268 1.7 2.6 0.00 0.00 0.00 35 1012.3
20260504190820 71 217 1.7 2.6 0.00 0.00 0.00 35 1012.4
20260504190316 71 187 3.5 6.1 0.00 0.00 0.00 36 1012.3
20260504185813 71 343 2.6 2.6 0.00 0.00 0.00 35 1012.6
20260504185310 71 179 1.7 2.6 0.00 0.00 0.00 35 1012.6
20260504184806 72 179 2.6 4.3 0.00 0.00 0.00 34 1012.7
20260504184302 72 293 0.9 0.9 0.00 0.00 0.00 34 1012.7
20260504183758 73 207 0.9 2.6 0.00 0.00 0.00 34 1012.7
20260504183255 72 270 0.9 1.7 0.00 0.00 0.00 36 1012.9
20260504182753 71 185 1.7 2.6 0.00 0.00 0.00 35 1012.9
20260504182249 72 269 3.5 4.3 0.00 0.00 0.00 33 1013.0
20260504181747 72 201 0.9 0.9 0.00 0.00 0.00 34 1012.9
20260504181244 72 162 2.6 4.3 0.00 0.00 0.00 34 1013.0
20260504180743 72 193 4.3 4.3 0.00 0.00 0.00 34 1013.0
20260504180242 73 257 2.6 2.6 0.00 0.00 0.00 33 1013.1
20260504175739 74 302 0.9 0.9 0.00 0.00 0.00 33 1013.3
20260504175236 74 289 0.9 0.9 0.00 0.00 0.00 33 1013.3
20260504174734 73 252 0.9 0.9 0.00 0.00 0.00 34 1013.5
20260504174232 73 278 2.6 2.6 0.00 0.00 0.00 34 1013.6
20260504173727 73 256 1.7 1.7 0.00 0.00 0.00 34 1013.3
20260504173225 73 236 1.7 4.3 0.00 0.00 0.00 34 1013.6
20260504172721 71 294 0.0 0.0 0.00 0.00 0.00 33 1013.7
20260504172218 72 278 1.7 1.7 0.00 0.00 0.00 35 1013.4
20260504171714 72 256 2.6 2.6 0.00 0.00 0.00 34 1013.8
20260504171211 71 252 1.7 2.6 0.00 0.00 0.00 34 1013.6
20260504170708 71 187 2.6 4.3 0.00 0.00 0.00 33 1013.9
20260504170206 71 276 1.7 2.6 0.00 0.00 0.00 34 1014.1
20260504160124 71 283 0.9 0.9 0.00 0.00 0.00 38 1014.8
20260504151051 68 212 2.6 2.6 0.00 0.00 0.00 38 1015.2
20260504150548 68 280 0.9 1.7 0.00 0.00 0.00 37 1015.1
20260504141015 64 196 3.5 4.3 0.00 0.00 0.00 50 1015.2
20260504140511 63 245 0.9 1.7 0.00 0.00 0.00 50 1015.2
20260504130436 59 197 4.3 5.2 0.00 0.00 0.00 62 1015.4
20260504110323 47 214 1.7 1.7 0.00 0.00 0.00 78 1016.0
20260504100240 47 230 2.6 2.6 0.00 0.00 0.00 73 1016.1
20260504081633 48 236 1.7 1.7 0.00 0.00 0.00 60 1015.9
20260504081129 48 237 2.6 4.3 0.00 0.00 0.00 60 1015.8
20260504080626 48 247 1.7 2.6 0.00 0.00 0.00 61 1016.0
20260504080122 48 241 1.7 2.6 0.00 0.00 0.00 61 1015.9
20260504050439 50 272 0.9 1.7 0.00 0.00 0.00 50 1015.9
20260504045936 50 257 0.9 1.7 0.00 0.00 0.00 50 1015.8
20260504045432 50 282 1.7 1.7 0.00 0.00 0.00 51 1015.9
20260504044928 51 264 0.9 1.7 0.00 0.00 0.00 50 1015.7
20260504044426 51 272 1.7 1.7 0.00 0.00 0.00 49 1015.7
20260504043923 51 274 0.9 0.9 0.00 0.00 0.00 49 1015.7
20260504043420 51 278 0.0 0.0 0.00 0.00 0.00 50 1015.7
20260504042917 51 277 0.9 1.7 0.00 0.00 0.00 49 1015.6
20260504042414 51 255 1.7 1.7 0.00 0.00 0.00 49 1015.6
20260504041910 51 268 0.0 0.9 0.00 0.00 0.00 49 1015.7
20260504041406 51 279 0.9 0.9 0.00 0.00 0.00 48 1015.6
20260504040902 51 278 0.9 0.9 0.00 0.00 0.00 48 1015.5
20260504040400 51 272 0.9 0.9 0.00 0.00 0.00 49 1015.3
20260504035856 51 269 0.9 0.9 0.00 0.00 0.00 49 1015.4
20260504035354 51 271 0.0 0.9 0.00 0.00 0.00 48 1015.4
20260504034850 51 278 0.9 0.9 0.00 0.00 0.00 49 1015.3
20260504034348 51 273 1.7 1.7 0.00 0.00 0.00 49 1015.4
20260504033844 51 267 1.7 1.7 0.00 0.00 0.00 49 1015.1
20260504033343 51 272 0.9 0.9 0.00 0.00 0.00 50 1015.4
20260504032839 51 273 0.0 0.9 0.00 0.00 0.00 49 1015.1
20260504032336 51 275 0.9 0.9 0.00 0.00 0.00 48 1015.4
20260504031833 51 267 0.9 0.9 0.00 0.00 0.00 49 1015.3
20260504031330 51 262 0.9 0.9 0.00 0.00 0.00 49 1015.3
20260504030826 51 260 0.9 1.7 0.00 0.00 0.00 49 1015.4
20260504030324 51 274 0.9 0.9 0.00 0.00 0.00 47 1015.2
20260504025820 51 282 0.0 0.9 0.00 0.00 0.00 48 1015.4
20260504025317 51 274 0.9 0.9 0.00 0.00 0.00 48 1015.2
20260504024814 52 261 0.0 0.9 0.00 0.00 0.00 47 1015.4
20260504024310 52 261 1.7 1.7 0.00 0.00 0.00 48 1015.4
20260504023807 52 270 0.9 0.9 0.00 0.00 0.00 46 1015.3
20260504023303 52 279 0.9 0.9 0.00 0.00 0.00 46 1015.3
20260504022759 52 267 1.7 1.7 0.00 0.00 0.00 46 1015.3
20260504022256 52 279 0.0 0.9 0.00 0.00 0.00 46 1015.4
20260504021752 52 277 0.9 0.9 0.00 0.00 0.00 46 1015.3
20260504021250 52 277 0.9 0.9 0.00 0.00 0.00 46 1015.2
20260504020747 52 274 0.9 0.9 0.00 0.00 0.00 46 1015.2
20260504020243 52 285 0.9 0.9 0.00 0.00 0.00 47 1015.2
20260504015739 52 293 0.9 0.9 0.00 0.00 0.00 46 1015.2
20260504015236 52 294 0.0 0.0 0.00 0.00 0.00 47 1015.2
20260504014732 52 297 0.0 0.0 0.00 0.00 0.00 47 1015.1
20260504014229 52 299 0.9 0.9 0.00 0.00 0.00 46 1015.3
20260504013726 52 300 0.0 0.9 0.00 0.00 0.00 46 1015.0
20260504013224 52 303 0.0 0.9 0.00 0.00 0.00 47 1015.1
20260504012720 53 303 0.0 0.0 0.00 0.00 0.00 46 1015.0
20260504012218 53 304 0.9 0.9 0.00 0.00 0.00 46 1015.0